Time,TemperatureF,DewpointF,PressureIn,WindDirection,WindDirectionDegrees,WindSpeedMPH,WindSpeedGustMPH,Humidity,HourlyPrecipIn,Conditions,Clouds,dailyrainin,SoftwareType,DateUTC
2013-03-07 00:01:00,38.0,37.0,29.85,ENE,63,1.0,3.0,98,0.00,,,0.39,,2013-03-07 08:01:00,
2013-03-07 00:11:00,38.0,37.0,29.85,ENE,63,1.0,3.0,98,0.00,,,0.39,,2013-03-07 08:11:00,
2013-03-07 00:22:00,38.0,37.0,29.85,East,82,1.0,4.0,98,0.00,,,0.39,,2013-03-07 08:22:00,
2013-03-07 00:31:00,38.0,37.0,29.86,ENE,78,1.0,6.0,98,0.01,,,0.40,,2013-03-07 08:31:00,
2013-03-07 00:43:00,38.0,37.0,29.86,ENE,78,1.0,6.0,98,0.01,,,0.40,,2013-03-07 08:43:00,
2013-03-07 00:53:00,38.0,37.0,29.86,East,88,2.0,6.0,98,0.01,,,0.40,,2013-03-07 08:53:00,
2013-03-07 01:01:00,38.0,37.0,29.87,East,84,2.0,7.0,98,0.01,,,0.40,,2013-03-07 09:01:00,
2013-03-07 01:11:00,38.0,37.0,29.87,East,84,2.0,7.0,98,0.01,,,0.40,,2013-03-07 09:11:00,
2013-03-07 01:22:00,38.0,37.0,29.87,East,84,3.0,6.0,98,0.01,,,0.40,,2013-03-07 09:22:00,
2013-03-07 01:31:00,39.0,38.0,29.88,ENE,74,1.0,7.0,97,0.00,,,0.40,,2013-03-07 09:31:00,
2013-03-07 01:41:00,39.0,38.0,29.88,ENE,74,1.0,7.0,97,0.00,,,0.40,,2013-03-07 09:41:00,
2013-03-07 01:52:00,39.0,38.0,29.88,East,90,1.0,5.0,98,0.00,,,0.40,,2013-03-07 09:52:00,
2013-03-07 02:01:00,39.0,38.0,29.89,East,88,1.0,5.0,98,0.00,,,0.40,,2013-03-07 10:01:00,
2013-03-07 02:21:00,39.0,38.0,29.89,ENE,61,1.0,4.0,97,0.00,,,0.40,,2013-03-07 10:21:00,
2013-03-07 02:32:00,39.0,38.0,29.90,East,90,0.0,6.0,98,0.00,,,0.40,,2013-03-07 10:32:00,
2013-03-07 02:42:00,39.0,38.0,29.90,East,90,0.0,6.0,98,0.00,,,0.40,,2013-03-07 10:42:00,
2013-03-07 02:52:00,39.0,38.0,29.90,East,81,2.0,5.0,98,0.00,,,0.40,,2013-03-07 10:52:00,
2013-03-07 03:01:00,39.0,38.0,29.90,ENE,73,1.0,3.0,98,0.01,,,0.41,,2013-03-07 11:01:00,
2013-03-07 03:11:00,39.0,38.0,29.90,ENE,73,1.0,3.0,98,0.01,,,0.41,,2013-03-07 11:11:00,
2013-03-07 03:22:00,39.0,38.0,29.91,ENE,74,1.0,5.0,97,0.01,,,0.41,,2013-03-07 11:22:00,
2013-03-07 03:32:00,39.0,38.0,29.91,ENE,65,1.0,6.0,98,0.02,,,0.42,,2013-03-07 11:32:00,
2013-03-07 03:42:00,39.0,38.0,29.91,ENE,65,1.0,6.0,98,0.02,,,0.42,,2013-03-07 11:42:00,
2013-03-07 04:01:00,39.0,38.0,29.91,East,86,1.0,3.0,97,0.01,,,0.42,,2013-03-07 12:01:00,
2013-03-07 04:11:00,39.0,38.0,29.91,East,86,1.0,3.0,97,0.01,,,0.42,,2013-03-07 12:11:00,
2013-03-07 04:21:00,39.0,38.0,29.92,NE,42,1.0,3.0,97,0.02,,,0.43,,2013-03-07 12:21:00,
2013-03-07 04:32:00,39.0,38.0,29.92,ENE,69,0.0,3.0,98,0.01,,,0.43,,2013-03-07 12:32:00,
2013-03-07 04:42:00,39.0,38.0,29.92,ENE,69,0.0,3.0,98,0.01,,,0.43,,2013-03-07 12:42:00,
2013-03-07 04:52:00,39.0,38.0,29.93,ESE,109,0.0,2.0,98,0.02,,,0.44,,2013-03-07 12:52:00,
2013-03-07 05:01:00,39.0,38.0,29.93,East,97,0.0,2.0,98,0.02,,,0.44,,2013-03-07 13:01:00,
2013-03-07 05:11:00,39.0,38.0,29.93,East,97,0.0,2.0,98,0.02,,,0.44,,2013-03-07 13:11:00,
2013-03-07 05:22:00,39.0,38.0,29.94,ESE,112,0.0,1.0,98,0.02,,,0.45,,2013-03-07 13:22:00,
2013-03-07 05:32:00,39.0,38.0,29.94,East,96,0.0,2.0,98,0.02,,,0.45,,2013-03-07 13:32:00,
2013-03-07 05:41:00,39.0,38.0,29.94,East,96,0.0,2.0,98,0.02,,,0.45,,2013-03-07 13:41:00,
2013-03-07 05:53:00,39.0,38.0,29.95,East,96,0.0,1.0,98,0.02,,,0.46,,2013-03-07 13:53:00,
2013-03-07 06:01:00,39.0,38.0,29.95,East,96,0.0,0.0,98,0.01,,,0.46,,2013-03-07 14:01:00,
2013-03-07 06:11:00,39.0,38.0,29.95,East,96,0.0,0.0,98,0.01,,,0.46,,2013-03-07 14:11:00,
2013-03-07 06:22:00,38.0,37.0,29.96,East,94,0.0,3.0,98,0.02,,,0.47,,2013-03-07 14:22:00,
2013-03-07 06:31:00,38.0,37.0,29.96,ESE,105,0.0,2.0,98,0.02,,,0.47,,2013-03-07 14:31:00,
2013-03-07 06:41:00,38.0,37.0,29.96,ESE,105,0.0,2.0,98,0.02,,,0.47,,2013-03-07 14:41:00,
2013-03-07 06:53:00,39.0,38.0,29.96,ESE,104,0.0,3.0,98,0.01,,,0.47,,2013-03-07 14:53:00,
2013-03-07 07:01:00,39.0,38.0,29.96,East,95,0.0,3.0,98,0.02,,,0.48,,2013-03-07 15:01:00,
2013-03-07 07:11:00,39.0,38.0,29.96,East,95,0.0,3.0,98,0.02,,,0.48,,2013-03-07 15:11:00,
2013-03-07 07:21:00,39.0,38.0,29.97,ESE,102,0.0,2.0,98,0.01,,,0.48,,2013-03-07 15:21:00,
2013-03-07 07:31:00,39.0,38.0,29.97,East,96,0.0,2.0,98,0.01,,,0.48,,2013-03-07 15:31:00,
2013-03-07 07:41:00,39.0,38.0,29.97,East,96,0.0,2.0,98,0.01,,,0.48,,2013-03-07 15:41:00,
2013-03-07 07:52:00,39.0,38.0,29.98,ESE,103,0.0,3.0,98,0.01,,,0.48,,2013-03-07 15:52:00,
2013-03-07 08:01:00,39.0,38.0,29.98,NE,40,0.0,4.0,98,0.00,,,0.48,,2013-03-07 16:01:00,
2013-03-07 08:22:00,39.0,38.0,29.98,ESE,104,0.0,1.0,98,0.00,,,0.48,,2013-03-07 16:22:00,
2013-03-07 08:31:00,39.0,38.0,29.99,ESE,108,0.0,2.0,98,0.00,,,0.48,,2013-03-07 16:31:00,
2013-03-07 08:42:00,39.0,38.0,29.99,ESE,108,0.0,2.0,98,0.00,,,0.48,,2013-03-07 16:42:00,
2013-03-07 08:52:00,39.0,38.0,30.00,ESE,108,0.0,1.0,98,0.00,,,0.48,,2013-03-07 16:52:00,
2013-03-07 09:01:00,39.0,38.0,30.00,ESE,105,0.0,1.0,98,0.00,,,0.48,,2013-03-07 17:01:00,
2013-03-07 09:11:00,39.0,38.0,30.00,ESE,105,0.0,1.0,98,0.00,,,0.48,,2013-03-07 17:11:00,
2013-03-07 09:21:00,39.0,39.0,30.01,ESE,105,0.0,0.0,99,0.01,,,0.49,,2013-03-07 17:21:00,
2013-03-07 09:31:00,40.0,40.0,30.01,ESE,107,0.0,1.0,99,0.01,,,0.49,,2013-03-07 17:31:00,
2013-03-07 09:42:00,40.0,40.0,30.01,ESE,107,0.0,1.0,99,0.01,,,0.49,,2013-03-07 17:42:00,
2013-03-07 09:53:00,40.0,40.0,30.02,ESE,107,0.0,0.0,99,0.01,,,0.49,,2013-03-07 17:53:00,
2013-03-07 10:01:00,40.0,40.0,30.02,ESE,107,0.0,0.0,99,0.01,,,0.49,,2013-03-07 18:01:00,
2013-03-07 10:11:00,40.0,40.0,30.02,ESE,107,0.0,0.0,99,0.01,,,0.49,,2013-03-07 18:11:00,
2013-03-07 10:21:00,40.0,40.0,30.03,ESE,107,0.0,0.0,99,0.01,,,0.50,,2013-03-07 18:21:00,
2013-03-07 10:31:00,41.0,41.0,30.03,ESE,107,0.0,2.0,99,0.01,,,0.50,,2013-03-07 18:31:00,
2013-03-07 10:41:00,41.0,41.0,30.03,ESE,107,0.0,2.0,99,0.01,,,0.50,,2013-03-07 18:41:00,
2013-03-07 10:52:00,41.0,41.0,30.03,ESE,107,0.0,0.0,99,0.01,,,0.50,,2013-03-07 18:52:00,
2013-03-07 11:01:00,42.0,42.0,30.03,ESE,107,0.0,1.0,99,0.01,,,0.50,,2013-03-07 19:01:00,
2013-03-07 11:11:00,42.0,42.0,30.03,ESE,107,0.0,1.0,99,0.01,,,0.50,,2013-03-07 19:11:00,
2013-03-07 11:22:00,43.0,43.0,30.03,SSE,148,0.0,2.0,99,0.00,,,0.49,,2013-03-07 19:22:00,
2013-03-07 11:32:00,43.0,43.0,30.04,ESE,116,0.0,3.0,99,0.00,,,0.49,,2013-03-07 19:32:00,
2013-03-07 11:42:00,43.0,43.0,30.04,ESE,116,0.0,3.0,99,0.00,,,0.49,,2013-03-07 19:42:00,
2013-03-07 11:52:00,43.0,43.0,30.04,ESE,116,0.0,0.0,99,0.00,,,0.49,,2013-03-07 19:52:00,
2013-03-07 12:01:00,43.0,42.0,30.04,ESE,107,0.0,2.0,98,0.00,,,0.49,,2013-03-07 20:01:00,
2013-03-07 12:11:00,43.0,42.0,30.04,ESE,107,0.0,2.0,98,0.00,,,0.49,,2013-03-07 20:11:00,
2013-03-07 12:21:00,44.0,43.0,30.04,SE,131,0.0,2.0,97,0.00,,,0.45,,2013-03-07 20:21:00,
2013-03-07 12:31:00,45.0,43.0,30.04,SSE,151,0.0,2.0,94,0.00,,,0.45,,2013-03-07 20:31:00,
2013-03-07 12:41:00,45.0,43.0,30.04,SSE,151,0.0,2.0,94,0.00,,,0.45,,2013-03-07 20:41:00,
2013-03-07 12:53:00,45.0,43.0,30.04,SSE,160,0.0,0.0,93,0.00,,,0.45,,2013-03-07 20:53:00,
2013-03-07 13:01:00,45.0,44.0,30.04,SSE,160,0.0,1.0,96,0.00,,,0.45,,2013-03-07 21:01:00,
2013-03-07 13:11:00,45.0,44.0,30.04,SSE,160,0.0,1.0,96,0.00,,,0.45,,2013-03-07 21:11:00,
2013-03-07 13:21:00,45.0,44.0,30.04,SSE,160,0.0,0.0,95,0.00,,,0.41,,2013-03-07 21:21:00,
2013-03-07 13:31:00,45.0,43.0,30.04,SSE,160,0.0,0.0,94,0.00,,,0.41,,2013-03-07 21:31:00,
2013-03-07 13:42:00,45.0,43.0,30.04,SSE,160,0.0,0.0,94,0.00,,,0.41,,2013-03-07 21:42:00,
2013-03-07 13:52:00,45.0,43.0,30.04,SSE,160,0.0,0.0,94,0.00,,,0.41,,2013-03-07 21:52:00,
2013-03-07 14:01:00,45.0,43.0,30.04,SSE,160,0.0,0.0,94,0.00,,,0.41,,2013-03-07 22:01:00,
2013-03-07 14:11:00,45.0,43.0,30.04,SSE,160,0.0,0.0,94,0.00,,,0.41,,2013-03-07 22:11:00,
2013-03-07 14:21:00,45.0,43.0,30.04,SSE,160,0.0,0.0,94,0.00,,,0.37,,2013-03-07 22:21:00,
2013-03-07 14:31:00,45.0,44.0,30.04,SSE,160,0.0,0.0,95,0.00,,,0.37,,2013-03-07 22:31:00,
2013-03-07 14:41:00,45.0,44.0,30.04,SSE,160,0.0,0.0,95,0.00,,,0.37,,2013-03-07 22:41:00,
2013-03-07 14:53:00,45.0,44.0,30.04,SSE,160,0.0,0.0,96,0.01,,,0.38,,2013-03-07 22:53:00,
2013-03-07 15:01:00,45.0,44.0,30.05,SE,143,0.0,0.0,96,0.01,,,0.38,,2013-03-07 23:01:00,
2013-03-07 15:11:00,45.0,44.0,30.05,SE,143,0.0,0.0,96,0.01,,,0.38,,2013-03-07 23:11:00,
2013-03-07 15:21:00,44.0,43.0,30.05,SE,143,0.0,0.0,97,0.01,,,0.35,,2013-03-07 23:21:00,
2013-03-07 15:31:00,45.0,44.0,30.05,SE,144,0.0,0.0,96,0.01,,,0.35,,2013-03-07 23:31:00,
2013-03-07 15:42:00,45.0,44.0,30.05,SE,144,0.0,0.0,96,0.01,,,0.35,,2013-03-07 23:42:00,
2013-03-07 15:53:00,45.0,44.0,30.05,SE,143,0.0,0.0,96,0.00,,,0.35,,2013-03-07 23:53:00,
2013-03-07 16:01:00,45.0,44.0,30.05,SE,143,0.0,0.0,97,0.00,,,0.35,,2013-03-08 00:01:00,
2013-03-07 16:11:00,45.0,44.0,30.05,SE,143,0.0,0.0,97,0.00,,,0.35,,2013-03-08 00:11:00,
2013-03-07 16:22:00,44.0,43.0,30.05,SE,143,0.0,0.0,96,0.01,,,0.34,,2013-03-08 00:22:00,
2013-03-07 16:32:00,44.0,43.0,30.05,SE,143,0.0,0.0,97,0.03,,,0.36,,2013-03-08 00:32:00,
2013-03-07 16:42:00,44.0,43.0,30.05,SE,143,0.0,0.0,97,0.03,,,0.36,,2013-03-08 00:42:00,
2013-03-07 16:53:00,44.0,43.0,30.05,SE,143,0.0,0.0,97,0.03,,,0.36,,2013-03-08 00:53:00,
2013-03-07 17:01:00,44.0,43.0,30.05,SE,143,0.0,0.0,97,0.03,,,0.36,,2013-03-08 01:01:00,
2013-03-07 17:11:00,44.0,43.0,30.05,SE,143,0.0,0.0,97,0.03,,,0.36,,2013-03-08 01:11:00,
2013-03-07 17:21:00,44.0,43.0,30.05,SE,143,0.0,0.0,97,0.02,,,0.32,,2013-03-08 01:21:00,
2013-03-07 17:31:00,44.0,43.0,30.05,SE,143,0.0,0.0,98,0.00,,,0.32,,2013-03-08 01:31:00,
2013-03-07 17:41:00,44.0,43.0,30.05,SE,143,0.0,0.0,98,0.00,,,0.32,,2013-03-08 01:41:00,
2013-03-07 17:52:00,44.0,43.0,30.05,SE,143,0.0,0.0,98,0.00,,,0.32,,2013-03-08 01:52:00,
2013-03-07 18:01:00,44.0,43.0,30.05,SE,143,0.0,0.0,98,0.00,,,0.32,,2013-03-08 02:01:00,
2013-03-07 18:11:00,43.0,42.0,30.05,SE,143,0.0,0.0,98,0.00,,,0.28,,2013-03-08 02:11:00,
2013-03-07 18:21:00,43.0,42.0,30.05,SE,143,0.0,0.0,98,0.00,,,0.28,,2013-03-08 02:21:00,
2013-03-07 18:31:00,43.0,42.0,30.05,SE,143,0.0,0.0,98,0.00,,,0.28,,2013-03-08 02:31:00,
2013-03-07 18:41:00,43.0,42.0,30.05,SE,143,0.0,0.0,98,0.00,,,0.28,,2013-03-08 02:41:00,
2013-03-07 18:52:00,43.0,42.0,30.05,SE,143,0.0,0.0,98,0.00,,,0.28,,2013-03-08 02:52:00,
2013-03-07 19:01:00,43.0,42.0,30.06,SE,143,0.0,0.0,98,0.00,,,0.28,,2013-03-08 03:01:00,
2013-03-07 19:11:00,43.0,42.0,30.06,SE,143,0.0,0.0,98,0.00,,,0.28,,2013-03-08 03:11:00,
2013-03-07 19:31:00,42.0,41.0,30.06,ENE,78,0.0,1.0,98,0.00,,,0.24,,2013-03-08 03:31:00,
2013-03-07 19:41:00,42.0,41.0,30.06,ENE,78,0.0,1.0,98,0.00,,,0.24,,2013-03-08 03:41:00,
2013-03-07 19:52:00,41.0,40.0,30.06,ENE,78,0.0,0.0,98,0.00,,,0.24,,2013-03-08 03:52:00,
2013-03-07 20:01:00,41.0,40.0,30.06,ENE,78,0.0,1.0,97,0.00,,,0.24,,2013-03-08 04:01:00,
2013-03-07 20:11:00,41.0,40.0,30.06,ENE,78,0.0,1.0,97,0.00,,,0.24,,2013-03-08 04:11:00,
2013-03-07 20:21:00,40.0,39.0,30.06,ENE,76,0.0,1.0,97,0.00,,,0.20,,2013-03-08 04:21:00,
2013-03-07 20:31:00,40.0,39.0,30.06,NNE,26,0.0,3.0,98,0.00,,,0.20,,2013-03-08 04:31:00,
2013-03-07 20:42:00,40.0,39.0,30.06,NNE,26,0.0,3.0,98,0.00,,,0.20,,2013-03-08 04:42:00,
2013-03-07 20:52:00,40.0,39.0,30.06,ESE,106,1.0,3.0,98,0.00,,,0.20,,2013-03-08 04:52:00,
2013-03-07 21:01:00,40.0,39.0,30.07,NE,34,1.0,2.0,98,0.00,,,0.20,,2013-03-08 05:01:00,
2013-03-07 21:12:00,40.0,39.0,30.07,NE,34,1.0,2.0,98,0.00,,,0.20,,2013-03-08 05:12:00,
2013-03-07 21:22:00,40.0,39.0,30.07,NE,34,0.0,2.0,97,0.00,,,0.18,,2013-03-08 05:22:00,
2013-03-07 21:31:00,40.0,39.0,30.07,NE,35,0.0,2.0,96,0.00,,,0.18,,2013-03-08 05:31:00,
2013-03-07 21:42:00,40.0,39.0,30.07,NE,35,0.0,2.0,96,0.00,,,0.18,,2013-03-08 05:42:00,
2013-03-07 21:52:00,40.0,39.0,30.08,NE,35,0.0,3.0,96,0.00,,,0.18,,2013-03-08 05:52:00,
2013-03-07 22:01:00,40.0,39.0,30.08,ESE,105,0.0,2.0,97,0.00,,,0.18,,2013-03-08 06:01:00,
2013-03-07 22:11:00,40.0,39.0,30.08,ESE,105,0.0,2.0,97,0.00,,,0.18,,2013-03-08 06:11:00,
2013-03-07 22:21:00,40.0,39.0,30.08,ESE,111,2.0,3.0,98,0.00,,,0.16,,2013-03-08 06:21:00,
2013-03-07 22:31:00,40.0,39.0,30.08,ESE,107,1.0,3.0,98,0.00,,,0.16,,2013-03-08 06:31:00,
2013-03-07 22:41:00,40.0,39.0,30.08,ESE,107,1.0,3.0,98,0.00,,,0.16,,2013-03-08 06:41:00,
2013-03-07 22:52:00,40.0,39.0,30.08,East,101,0.0,2.0,98,0.00,,,0.16,,2013-03-08 06:52:00,
2013-03-07 23:01:00,40.0,39.0,30.08,East,101,1.0,2.0,98,0.00,,,0.16,,2013-03-08 07:01:00,
2013-03-07 23:11:00,40.0,39.0,30.08,East,101,1.0,2.0,98,0.00,,,0.16,,2013-03-08 07:11:00,
2013-03-07 23:21:00,40.0,39.0,30.08,ESE,105,0.0,3.0,98,0.00,,,0.15,,2013-03-08 07:21:00,
2013-03-07 23:31:00,39.0,38.0,30.08,ESE,111,1.0,3.0,98,0.00,,,0.15,,2013-03-08 07:31:00,
2013-03-07 23:41:00,39.0,38.0,30.08,ESE,111,1.0,3.0,98,0.00,,,0.15,,2013-03-08 07:41:00,
2013-03-07 23:52:00,39.0,38.0,30.08,ESE,102,1.0,5.0,98,0.00,,,0.15,,2013-03-08 07:52:00,